Вернуться в каталог

TIANPING 3A-01

АктивенНаукаSSO
NORAD 61614·PAYLOAD·🇨🇳 China

Запущен Oct 22, 2024 с Taiyuan Satellite Launch Center

Loading…

Ближайшие Пролёты (ближайшие 24 часа)

TLE

СвежийSource: Space-Track

Эпоха: Sep 14, 2026, 15:24 UTC

1 61614U 24189A   26257.64200204  .00002209  00000-0  17708-3 0  9991
2 61614  97.5137 274.9853 0003336 112.9351 247.2226 15.01097892103907

Отслеживайте TIANPING 3A-01 в реальном времени с AllMySat

Download on the App Store